{"data":{"norad_id":54755,"epoch":"2026-09-20T03:33:18.768096Z","epoch_age_seconds":44886,"freshness":"FRESH","line1":"1 54755U 22174A   26263.14813389 -.00000026  00000+0  00000+0 0  9995","line2":"2 54755   0.0424 342.2775 0006959 201.5716 277.9939  5.00114463 70118","mean_motion":5.00114463,"eccentricity":0.0006959,"inclination_deg":0.0424,"raan_deg":342.2775,"arg_perigee_deg":201.5716,"mean_anomaly_deg":277.9939,"bstar":0,"rev_number":7011,"period_min":287.93408440179,"perigee_km":8055.8585725492,"apogee_km":8075.9617974213,"semimajor_km":14444.047184985,"source":"CELESTRAK","updated_at":"2026-09-20T09:00:35.688419Z"}}